This is the latest recevied weather packets stored in our database for station/object SP9EPI-13. If no packets are shown the sender has not sent any weather packets the latest 10 day(s).
| Time | Temp. | Humidity | Pressure | Rain* | Wind** | Luminosity | Snow |
|---|---|---|---|---|---|---|---|
| 1777541401 | 11.11° C | 38% | 1025.7 hPa | - | - | - | - |
| 1777540801 | 11.11° C | 37% | 1025.7 hPa | - | - | - | - |
| 1777540201 | 10° C | 37% | 1025.7 hPa | - | - | - | - |
| 1777539601 | 8.89° C | 40% | 1025.7 hPa | - | - | - | - |
| 1777539001 | 8.89° C | 39% | 1026 hPa | - | - | - | - |
| 1777538401 | 8.89° C | 40% | 1026 hPa | - | - | - | - |
| 1777537801 | 10° C | 42% | 1026 hPa | - | - | - | - |
| 1777537201 | 10° C | 55% | 1026 hPa | - | - | - | - |
| 1777536601 | 8.89° C | 57% | 1026 hPa | - | - | - | - |
| 1777536001 | 10° C | 58% | 1026 hPa | - | - | - | - |
| 1777535401 | 8.89° C | 59% | 1026 hPa | - | - | - | - |
| 1777534801 | 8.89° C | 62% | 1026 hPa | - | - | - | - |
| 1777534201 | 7.78° C | 62% | 1026 hPa | - | - | - | - |
| 1777533600 | 7.78° C | 64% | 1026 hPa | - | - | - | - |
| 1777533000 | 7.78° C | 65% | 1026.4 hPa | - | - | - | - |
| 1777532401 | 7.78° C | 66% | 1026.4 hPa | - | - | - | - |
| 1777531800 | 7.22° C | 69% | 1026.4 hPa | - | - | - | - |
| 1777531201 | 7.22° C | 71% | 1026.4 hPa | - | - | - | - |
| 1777530602 | 6.11° C | 72% | 1026.4 hPa | - | - | - | - |
| 1777530001 | 5° C | 75% | 1026.4 hPa | - | - | - | - |
| 1777529401 | 5° C | 78% | 1026 hPa | - | - | - | - |
| 1777528801 | 3.89° C | 79% | 1026 hPa | - | - | - | - |
| 1777528201 | 2.78° C | 81% | 1026.4 hPa | - | - | - | - |
| 1777527601 | 2.78° C | 86% | 1026.4 hPa | - | - | - | - |
| 1777527001 | 2.22° C | 86% | 1026.4 hPa | - | - | - | - |
* Rain since midnight (hover to see other rain measurements)
** Current wind speed in m/s (hover to see current wind gust speed)